www.pogodaiklimat.ru

Погода и климат >> Архив погоды >> Австрия >> Филлах


ПОГОДА в Филлахе

  • Прогноз погоды в Филлахе
  • Монитор погоды в Филлахе

АРХИВ ПОГОДЫ в Филлахе

Время (UTC), дата Ветер
(напр.,м/с)
 
Видим.   Явления Облачность Т
(С)
Тd
(С)
f
(%)
Тe
(С)
Тes
(С)
Комфортность P
(гПа)
Po
(гПа)
Тmin
(С)
Tmax
(С)
R
(мм)
R24
(мм)
S
(см)
10 10.07 ЮВ 2 н/о н/о +20.1 +8.9 48 +22 +22 комфорт 1014.1 957.8
11 10.07 Ю 1 н/о н/о +20.8 +8.2 44 +23 +23 комфорт 1013.8 957.6
12 10.07 ЮВ 2 н/о н/о +21.8 +8.3 42 +23 +23 комфорт 1013.2 957.3
13 10.07 Ю 2 н/о н/о +22.3 +6.9 37 +23 +23 комфорт 1013.0 957.1
14 10.07 В 1 н/о н/о +23.6 +8.3 38 +24 +24 комфорт 1012.2 956.6
15 10.07 ЮВ 2 н/о н/о +23.3 +6.8 35 +24 +24 комфорт 1012.1 956.5
16 10.07 ЮВ 2 н/о н/о +23.4 +7.2 35 +24 +24 комфорт 1012.0 956.4
17 10.07 В 2 н/о н/о +22.7 +7.2 37 +24 +24 комфорт 1012.3 956.6
18 10.07 В 3 30 км 8/1 1500 м
[Cu hum Ci]
+22.0 +7.7 40 +23 +23 комфорт 1012.5 956.6 +15.0 +23.8
19 10.07 В 2 н/о н/о +20.2 +8.5 47 +22 +22 комфорт 1013.7 957.4
20 10.07 В 2 н/о н/о +18.6 +8.6 52 +20 +20 1014.8 958.2
21 10.07 В 2 н/о н/о +17.7 +9.1 57 +18 +18 1015.5 958.7
22 10.07 В 1 н/о н/о +15.9 +9.2 64 +17 +17 1016.4 959.2
23 10.07 ЮВ 1 н/о н/о +14.1 +9.9 76 +14 +14 1016.8 959.2
00 11.07 штиль 0 н/о н/о +12.8 +9.8 82 +12 +12 1017.3 959.5
01 11.07 ЮЗ 1 н/о н/о +11.8 +9.7 87 +12 +12 1017.6 959.5
02 11.07 штиль 0 н/о н/о +11.5 +9.7 89 +11 +11 1017.3 959.2
03 11.07 ЮЗ 1 н/о н/о +10.5 +9.1 91 +10 +10 1017.4 959.1
04 11.07 штиль 0 н/о н/о +10.5 +9.2 92 +10 +10 1017.8 959.5
05 11.07 З 1 20 км 8/0
[As op Cs]
+11.4 +9.5 88 +11 +12 1017.6 959.5
06 11.07 З 1 25 км 6/0
[Ac trans Cs]
+13.1 +8.9 76 +13 +17 1017.3 959.5 +10.5 +22.1
07 11.07 С 1 н/о н/о +14.9 +9.1 68 +15 +15 1016.6 959.2
08 11.07 СВ 1 н/о н/о +17.0 +9.9 63 +18 +18 1015.7 958.8
09 11.07 ЮВ 1 15 км 8/3 1500 м
[Cu hum Ac trans]
+19.1 +9.4 53 +21 +28 комфорт 1014.9 958.4
10 11.07 В 2 н/о н/о +20.8 +9.5 48 +23 +23 комфорт 1013.8 957.7
11 11.07 ЮВ 2 н/о н/о +21.8 +9.2 45 +23 +23 комфорт 1013.0 957.1
12 11.07 В 2 н/о н/о +22.9 +10.4 45 +25 +25 комфорт 1012.2 956.6
13 11.07 ЮВ 3 н/о н/о +22.9 +10.1 44 +25 +25 комфорт 1011.6 956.0
14 11.07 ЮВ 2 н/о н/о +22.7 +10.0 44 +24 +24 комфорт 1011.4 955.8
15 11.07 В 2 н/о н/о +22.5 +10.3 46 +24 +24 комфорт 1011.3 955.6
16 11.07 В 2 н/о н/о +22.2 +10.4 47 +24 +24 комфорт 1011.2 955.5
17 11.07 ЮВ 1 н/о н/о +22.1 +9.5 45 +24 +24 комфорт 1011.3 955.5
18 11.07 ЮВ 1 н/о +21.3 +10.9 51 +23 +23 комфорт 1011.5 955.6 +12.6 +23.3
19 11.07 Ю 1 н/о н/о +19.6 +12.6 64 +22 +22 комфорт 1012.1 955.9
20 11.07 З 2 н/о в посл. час осадки н/о +18.5 +13.5 73 +20 +20 1013.3 956.8 0.0
21 11.07 З 2 сильные жидкие осадки н/о +17.6 +14.7 83 +18 +18 1014.0 957.4 0.1 71
22 11.07 Ю 1 н/о ливневой дождь н/о +16.7 +14.8 89 +18 +18 1014.3 957.5 0.0
23 11.07 Ю 1 н/о в посл. час осадки н/о +16.3 +14.6 90 +17 +17 1014.5 957.6 0.0
00 12.07 СЗ 1 н/о в посл. час осадки {ливн. осадки} н/о +15.9 +14.4 91 +17 +17 1014.4 957.4 0.2
01 12.07 СЗ 1 н/о н/о +15.8 +14.0 89 +16 +16 1013.9 956.9 0.0
02 12.07 ЮЗ 1 н/о н/о +15.7 +14.0 90 +16 +16 1013.9 956.9
03 12.07 СЗ 1 н/о н/о +14.9 +13.1 89 +15 +15 1013.9 956.7 0.0
04 12.07 СЗ 1 н/о н/о +14.7 +12.8 88 +15 +15 1014.2 957.0
05 12.07 СЗ 2 20 км 9/0
[Ac trans]
+15.1 +12.6 85 +15 +16 1014.6 957.4
06 12.07 СЗ 1 н/о н/о +16.0 +12.8 81 +17 +19 1014.3 957.3 +14.6 +21.5 0.2
07 12.07 СЗ 2 н/о н/о +17.1 +13.1 77 +17 +17 1014.1 957.3
08 12.07 СВ 1 н/о н/о +18.7 +13.3 71 +21 +21 комфорт 1013.2 956.8
09 12.07 С 1 н/о н/о +21.1 +13.9 63 +24 +24 комфорт 1012.4 956.5
10 12.07 СЗ 1 н/о н/о +22.1 +12.7 55 +25 +25 комфорт 1011.9 956.2
11 12.07 СВ 2 н/о н/о +23.4 +13.3 53 +27 +27 душно 1011.0 955.6
12 12.07 З 2 н/о н/о +25.2 +10.4 39 +26 +26 жарко 1010.0 954.9
13 12.07 ЮЗ 2 н/о н/о +25.6 +11.4 41 +27 +27 жарко 1009.4 954.4 0.0
14 12.07 З 3 н/о н/о +26.6 +9.7 35 +27 +27 жарко 1008.5 953.7 0.0
15 12.07 СЗ 3 н/о н/о +24.9 +10.2 40 +26 +26 жарко 1008.6 953.5 0.0
16 12.07 ЮЗ 2 н/о н/о +21.4 +14.2 64 +24 +24 комфорт 1009.2 953.5
17 12.07 СЗ 2 н/о н/о +21.5 +13.9 62 +24 +24 комфорт 1009.7 954.0 0.0
18 12.07 ЮЗ 2 н/о в посл. час осадки н/о +18.4 +15.1 81 +19 +19 1011.1 954.8 +15.8 +27.3 0.6
19 12.07 В 3 н/о н/о +17.9 +14.5 80 +18 +18 1011.8 955.3
20 12.07 Ю 1 н/о н/о +16.6 +13.8 84 +17 +17 1013.1 956.3
21 12.07 В 2 н/о н/о +16.0 +13.2 83 +16 +16 1013.2 956.3
22 12.07 ЮВ 1 н/о н/о +15.5 +13.3 87 +16 +16 1013.6 956.6
23 12.07 штиль 0 н/о н/о +15.4 +13.4 88 +15 +15 1013.5 956.4
00 13.07 З 1 н/о осадки н/о +15.3 +14.0 92 +16 +16 1013.6 956.5 3
01 13.07 С 1 н/о в посл. час осадки н/о +15.0 +14.2 95 +15 +15 1013.3 956.2 1
02 13.07 Ю 1 н/о н/о +14.7 +14.0 96 +15 +15 1012.6 955.5 0.0
03 13.07 Ю 1 н/о {осадки} н/о +14.8 +14.0 95 +15 +15 1012.2 955.1 1
04 13.07 штиль 0 н/о н/о +14.1 +12.9 92 +14 +14 1012.5 955.2
05 13.07 СЗ 2 н/о н/о +14.3 +12.9 91 +14 +14 1012.5 955.3
06 13.07 СЗ 2 н/о {осадки} н/о +14.5 +12.7 89 +14 +14 1012.5 955.3 +14.0 +18.5 4
07 13.07 СЗ 1 н/о н/о +15.3 +13.1 87 +16 +16 1012.2 955.2
08 13.07 СЗ 3 н/о н/о +18.3 +13.0 71 +19 +19 1011.7 955.3
09 13.07 СВ 1 н/о н/о +19.7 +13.7 68 +23 +23 комфорт 1011.2 955.1
10 13.07 ЮВ 1 н/о н/о +20.4 +12.7 61 +24 +24 комфорт 1011.1 955.1
11 13.07 СВ 1 н/о н/о +21.3 +14.3 64 +24 +24 комфорт 1010.9 955.1 0.0
12 13.07 ЮВ 1 н/о в посл. час осадки н/о +22.4 +11.3 49 +25 +25 комфорт 1010.3 954.7 0.2
14 13.07 В 3 н/о н/о +22.3 +9.7 45 +24 +24 комфорт 1010.3 954.6
15 13.07 В 3 н/о н/о +23.1 +8.3 39 +24 +24 комфорт 1010.0 954.5
17 13.07 СЗ 4 н/о н/о +23.0 +5.7 33 +23 +23 комфорт 1010.4 954.8
18 13.07 СЗ 4 н/о н/о +21.5 +6.3 37 +22 +22 комфорт 1011.4 955.5 +14.4 +23.9 0.2
19 13.07 С 1 н/о н/о +19.9 +6.2 41 +22 +22 комфорт 1012.2 955.9
20 13.07 штиль 0 н/о н/о +18.4 +6.8 47 +19 +19 1013.4 956.8
21 13.07 СВ 1 н/о н/о +17.6 +7.9 53 +19 +19 1013.9 957.1
22 13.07 штиль 0 н/о н/о +16.5 +8.8 60 +16 +16 1014.4 957.4
23 13.07 штиль 0 н/о н/о +15.1 +8.7 66 +15 +15 1014.7 957.4
00 14.07 СЗ 1 н/о н/о +14.6 +8.7 68 +15 +15 1014.5 957.1
01 14.07 штиль 0 н/о н/о +13.2 +9.1 76 +13 +13 1014.5 956.9
02 14.07 Ю 1 н/о н/о +12.6 +9.1 79 +13 +13 1014.3 956.6
03 14.07 ЮЗ 1 н/о н/о +11.6 +9.2 85 +11 +11 1014.5 956.6
04 14.07 З 1 н/о н/о +11.2 +8.8 85 +11 +11 1014.6 956.6
05 14.07 В 1 30 км 3/3 1500 м
[Cu hum]
+12.5 +9.2 80 +13 +14 1014.6 956.8
06 14.07 ЮЗ 1 30 км 8/8 1500 м
[Cu hum]
+13.9 +9.8 76 +14 +15 1014.4 956.9 +11.0 +21.6
07 14.07 З 1 н/о н/о +15.6 +10.2 70 +16 +16 1014.0 956.9
08 14.07 ЮЗ 1 н/о н/о +18.9 +8.5 51 +21 +21 комфорт 1013.4 956.9
09 14.07 Ю 1 30 км 8/8 1500 м
[Cu hum]
+21.5 +9.1 45 +23 +26 комфорт 1012.6 956.7
10 14.07 Ю 1 н/о н/о +22.5 +8.8 42 +24 +24 комфорт 1011.9 956.2
11 14.07 СВ 2 н/о н/о +23.3 +9.0 40 +25 +25 комфорт 1011.6 956.0
12 14.07 В 4 30 км 8/8 1500 м
[Cu med, cong]
+23.9 +10.2 42 +25 +27 комфорт 1011.1 955.7
13 14.07 В 3 н/о н/о +23.5 +9.5 41 +24 +24 комфорт 1011.1 955.6 0.0
14 14.07 В 4 н/о н/о +23.2 +11.3 47 +25 +25 комфорт 1011.3 955.8
15 14.07 В 3 н/о н/о +22.3 +10.0 46 +24 +24 комфорт 1011.5 955.8 0.0
16 14.07 СВ 3 н/о н/о +19.7 +11.4 59 +21 +21 комфорт 1012.1 955.9 0.0
17 14.07 СВ 2 н/о в посл. час осадки н/о +18.7 +11.9 65 +20 +20 1012.6 956.2 0.0
18 14.07 С 1 30 км слаб. дождь 8/8 1500 м
[Cu med, cong]
+19.0 +11.8 63 +21 +21 комфорт 1012.3 956.0 +13.6 +24.8 0.0
19 14.07 СВ 1 н/о н/о +18.4 +11.6 65 +20 +20 1012.9 956.4 0.0
20 14.07 С 1 н/о н/о +17.8 +11.2 65 +19 +19 1013.4 956.8 0.0
21 14.07 СВ 1 н/о н/о +16.3 +11.9 75 +17 +17 1013.7 956.8 0.0
22 14.07 Ю 1 н/о н/о +15.1 +11.8 81 +16 +16 1014.2 957.0
23 14.07 штиль 0 н/о н/о +14.1 +11.0 82 +14 +14 1014.5 957.1
00 15.07 штиль 0 н/о н/о +13.7 +10.9 83 +13 +13 1014.6 957.1 0.0
01 15.07 СЗ 1 н/о н/о +13.6 +10.4 81 +14 +14 1014.5 957.0
02 15.07 СЗ 1 н/о н/о +12.9 +10.0 83 +13 +13 1014.6 956.9
03 15.07 З 1 н/о н/о +12.9 +10.2 84 +13 +13 1014.6 956.9
04 15.07 ЮЗ 1 н/о н/о +13.1 +10.5 84 +13 +13 1014.7 957.1
05 15.07 штиль 0 15 км 8/6 2000 м
[Sc diur, vesp Ci fib]
+13.7 +10.2 79 +13 +14 1014.3 956.8
06 15.07 СВ 1 н/о н/о +14.8 +10.9 77 +15 +16 1014.2 956.9 +12.8 +19.0 0.0
07 15.07 ЮВ 1 н/о н/о +16.4 +11.4 72 +17 +17 1013.7 956.8
08 15.07 ЮЗ 1 н/о н/о +17.7 +11.4 67 +19 +19 1013.6 956.9
09 15.07 В 2 20 км 8/6 2000 м
[Cu med, cong Ac As]
+20.6 +11.1 54 +23 +27 комфорт 1012.9 956.8
10 15.07 ЮВ 2 н/о н/о +21.5 +10.0 48 +23 +23 комфорт 1012.5 956.6
11 15.07 ЮВ 2 н/о н/о +22.4 +9.4 44 +24 +24 комфорт 1011.9 956.2
12 15.07 В 2 н/о н/о +23.1 +9.0 41 +25 +25 комфорт 1011.4 955.8
13 15.07 ЮВ 3 н/о н/о +23.7 +9.0 39 +24 +24 комфорт 1011.2 955.7
14 15.07 В 4 н/о н/о +23.3 +8.9 40 +25 +25 комфорт 1011.5 955.9
15 15.07 СВ 3 н/о н/о +21.9 +10.0 47 +24 +24 комфорт 1012.0 956.2
16 15.07 С 3 н/о н/о +22.0 +11.4 51 +24 +24 комфорт 1011.6 955.8
17 15.07 В 2 н/о н/о +22.4 +10.2 46 +24 +24 комфорт 1011.6 955.9
18 15.07 СВ 2 20 км слаб. дождь 9/9 2000 м
[Frnb]
+20.4 +10.5 53 +23 +23 комфорт 1012.7 956.6 +14.7 +24.4 0.0
19 15.07 СЗ 2 н/о н/о +18.8 +12.8 68 +20 +20 1013.5 957.1
20 15.07 СЗ 2 н/о н/о +17.3 +12.9 75 +18 +18 1014.5 957.7
21 15.07 З 2 н/о н/о +17.4 +12.7 74 +18 +18 1015.2 958.4 0.0
22 15.07 СЗ 3 н/о н/о +16.3 +12.8 80 +16 +16 1015.6 958.6
23 15.07 СЗ 4 н/о н/о +15.3 +12.7 84 +14 +14 1015.9 958.7
00 16.07 З 3 н/о н/о +14.5 +11.9 84 +14 +14 1016.1 958.7 0.0
01 16.07 З 3 н/о н/о +13.9 +11.6 86 +13 +13 1016.3 958.8
02 16.07 З 3 н/о н/о +14.0 +11.5 85 +13 +13 1016.2 958.7
03 16.07 СЗ 2 н/о н/о +13.5 +11.1 85 +13 +13 1016.4 958.8
04 16.07 З 3 н/о н/о +13.0 +10.6 85 +12 +12 1016.4 958.7
05 16.07 З 4 30 км 1/0
[Ci fib]
+13.1 +10.6 85 +11 +12 1016.6 958.9
06 16.07 СЗ 2 30 км 5/1
[Cu med, cong Ci fib]
+14.3 +11.0 81 +14 +17 1016.6 959.1 +12.7 +20.6 0.0
07 16.07 СЗ 3 н/о н/о +16.5 +11.4 72 +16 +16 1015.9 958.9
08 16.07 З 2 н/о н/о +18.9 +11.7 63 +20 +20 1015.2 958.7
09 16.07 ЮВ 1 30 км 5/5
[Cu med, cong]
+20.7 +10.6 52 +24 +32 комфорт 1014.3 958.1
10 16.07 штиль 0 н/о н/о +23.1 +10.5 45 +25 +25 комфорт 1013.4 957.7
11 16.07 СВ 1 н/о н/о +23.2 +9.6 42 +25 +25 комфорт 1013.3 957.6
12 16.07 ЮВ 1 н/о н/о +24.5 +8.8 37 +25 +25 комфорт 1012.5 957.1
13 16.07 ЮВ 2 н/о н/о +26.2 +9.9 36 +27 +27 жарко 1011.6 956.6
14 16.07 ЮВ 1 н/о н/о +26.2 +9.8 36 +27 +27 жарко 1011.2 956.2
15 16.07 В 2 н/о н/о +25.2 +8.4 34 +26 +26 жарко 1011.1 955.9
16 16.07 В 2 н/о н/о +25.8 +8.5 33 +26 +26 жарко 1010.6 955.5
17 16.07 СВ 1 н/о н/о +25.1 +9.4 37 +26 +26 жарко 1010.6 955.4
18 16.07 СВ 1 н/о н/о +23.6 +11.0 45 +25 +25 комфорт 1010.8 955.4 +14.0 +26.6
19 16.07 СВ 2 н/о н/о +20.9 +11.0 53 +24 +24 комфорт 1011.9 955.9
20 16.07 СВ 1 н/о н/о +19.1 +10.6 58 +21 +21 комфорт 1013.2 956.8
21 16.07 штиль 0 н/о н/о +17.2 +11.8 71 +17 +17 1014.1 957.3
22 16.07 штиль 0 н/о н/о +15.9 +11.9 77 +16 +16 1014.8 957.7
23 16.07 Ю 1 н/о н/о +14.7 +11.8 83 +15 +15 1015.4 958.1
00 17.07 ЮЗ 1 н/о н/о +14.0 +10.9 82 +14 +14 1016.1 958.6
01 17.07 Ю 1 н/о н/о +13.0 +10.9 87 +13 +13 1016.2 958.5
02 17.07 З 1 н/о н/о +12.6 +10.4 86 +13 +13 1016.2 958.4
03 17.07 ЮЗ 1 н/о н/о +12.6 +10.0 84 +13 +13 1016.2 958.4
04 17.07 ЮЗ 1 н/о н/о +12.4 +9.7 84 +12 +12 1016.6 958.7
05 17.07 З 2 30 км ясно +14.0 +9.2 73 +14 +15 1016.2 958.6
06 17.07 З 2 30 км 4/0
[Cs]
+15.8 +9.2 65 +16 +19 1015.8 958.6 +11.9 +24.1
07 17.07 З 2 н/о н/о +18.6 +8.5 52 +20 +20 1014.5 957.9
08 17.07 СЗ 2 н/о н/о +20.6 +9.1 48 +23 +23 комфорт 1013.7 957.5
09 17.07 штиль 0 25 км 9/3 1500 м
[Cu hum Cs]
+22.8 +9.5 43 +24 +36 комфорт 1012.3 956.6

 

Местоположение метеостанции Филлах (Австрия): широта 46.62 долгота 13.88 высота над уровнем моря 494 м.

В архиве по умолчанию представлена погода в Филлахе за последнюю неделю. Архивные данные за месяц целиком и за предыдущие месяцы, начиная с января 2011 года, Вы можете получить, выбрав интересующий диапазон дат из раскрывающегося списка и нажав кнопку "Ввод!".


*Определитесь, кто Вы:
робот инопланетянин человек

Внимание! Время в таблицах - всемирное. Для получения местного времени необходимо прибавить поправку, которая равна 1 ч.

Смотрите также архив погоды в соседних городах и на ближайших метеорологических станциях:

Погода в Арриахе (Австрия) (12 км)
Погода на Добраче (Австрия) (16 км)
Погода на Добраче АМС (Австрия) (16 км)
Погода в Ратеце (Словения) (18 км)
Погода в Фельдкирхене (Австрия) (20 км)
Погода в Пёрчах-ам-Вёртерзе (Австрия) (22 км)
Погода Тарвизио (Италия) (27 км)
Погода на Кредарике (Словения) (27 км)
Погода в Клагенфурте (Австрия) (34 км)
Погода в Клагенфурте (Австрия) (35 км)

Пояснения к столбцам:

Ветер - указаны скорость ветра в м/с - средняя за 10 мин, порывы в срок и между сроками (в фигурных скобках) и направление, откуда дует ветер: С - северный, СВ - северо-восточный, В - восточный, ЮВ - юго-восточный, Ю - южный, ЮЗ - юго-западный, З - западный, СЗ - северо-западный.
Видимость - горизонтальная дальность видимости в метрах или километрах. При видимости от 1 до 10 км при отсутствии осадков обычно наблюдается дымка, при ухудшении видимости до 1 км и менее - туман. В сухую погоду видимость может ухудшаться дымом, пылью или мглою.
Явления - указаны атмосферные явления, наблюдавшиеся в срок или в последний час перед сроком; фигурными скобками обозначены явления, наблюдавшиеся между сроками (за 1-3 часа до срока); квадратными скобками обозначены град или гололедные отложения с указанием их диаметра в мм.
Облачность - указаны через наклонную черту общая и нижняя облачность в баллах и высота нижней границы облаков в метрах; квадратными скобками обозначены формы облаков: Ci - перистые, Cs - перисто-слоистые, Cc - перисто-кучевые, Ac - высококучевые, As - высокослоистые, Sc - слоисто-кучевые, Ns - слоисто-дождевые, Cu - кучевые, Cb - кучево-дождевые. Подробнее классификацию облаков см. в Атласе облаков (PDF).
T - Температура воздуха - температура, измеренная на высоте 2 м над землей.
Td - Температура точки росы - температура, при понижении до которой содержащийся в воздухе водяной пар достигнет насыщения.
f - Относительная влажность воздуха - влажноcть воздуха, измеренная на высоте 2 м над землей.
Te - Эффективная температура - температура, которую ощущает одетый по сезону человек в тени. Характеристика душности погоды. При расчете учитывается влияние влажности воздуха и скорости ветра на теплоощущения человека.
Tes - Эффективная температура на солнце - температура, которую ощущает человек, с поправкой на солнечный нагрев. Характеристика знойности погоды. Зависит от высоты солнца над горизонтом, облачности и скорости ветра. Ночью, в пасмурную погоду, а также при ветре 12 м/с и более поправка равна нулю.
P - Атмосферное давление - приведенное к уровню моря атмосферное давление.
Po - Атмосферное давление - измеренное на уровне метеостанции атмосферное давление.
Tmin - Минимальная температура - минимум температуры воздуха на высоте 2 м над землей.
Tmax - Максимальная температура - максимум температуры воздуха на высоте 2 м над землей.
R - Количество осадков - Количество выпавших осадков за период времени, мм. При наведении курсора мыши на число - период времени, за который выпало указанное количество осадков.
R24 - Количество осадков - Количество выпавших осадков за 24 часа, мм.
S - Снежный покров - Высота снежного покрова, см. При наведении курсора мыши на число - состояние снежного покрова и степень покрытия местности в баллах.